Aérodrome :
LOGIN :

S'inscrire | Disclaimer

   EN    FR    IT 

 










Légende :    VFR   VFR Marginal   IFR   IFR Intensif   IFR Très Intensif
Visi : 
Plafond : 
>= 8 km
>= 3000ft
5 à 8 km
1000 à 3000 ft
1500m à 5 km
500 à 1000 ft
800 à 1500m
200 à 500 ft
< 800m
< 200 ft
Symboles :   Orages  Brouillard  Fortes neiges  Fortes précipitations  Vent > 20 kt
SIGMETs :   Divers  Orages  Givrage  Turbulence  Onde Orograph.  Cendres Volcan.







- Altitude de l'aérodrome : 270 ft
- Code IATA : OXF
- Voir les cartes d'approche


EGTK - Oxford (Kidlington)

DERNIER METAR :
  • 251420Z VRB03KT 9999 BKN014 15/12 Q1018

METARs EXPIRÉS :
  • 251350Z VRB02KT 9999 SCT015 BKN020 16/12 Q1018
  • 251320Z 00000KT 9999 BKN013 OVC020 16/12 Q1018
  • 251250Z VRB02KT 9999 OVC016 15/12 Q1018
  • 251220Z VRB02KT 9999 OVC017 14/12 Q1018
  • 251150Z VRB03KT 9999 SCT010 BKN014 14/12 Q1018

Prévision TAF périmée.
Pas de NOTAMs connus pour ce terrain.



MET'MAP, la Météo Aéronautique d'un coup d'oeil ! - Copyright ORBIFLY Décembre 2007 - Disclaimer

ORBIFLY MET'MAP TEAM :

Programmation & Développement : Alexandra Zaïnal
Conception & Développement : Baudouin d'Aumeries
Co-Programmation & Développement : Marc-Olivier Méhu
Soutien technique & logistique : Manuel Goepfert

Contact : metmap@orbifly.com




SOURCES & CREDITS :

   NOAA